| time (UTC) | temp F | wind direction | speed MPH | gust MPH | rain 1hr in | rain 24hr in | rain mn in | humidity % | barometer mb |
| 20260505211535 | 80 | 25 | 3.0 | 8.0 | 0.00 | 0.00 | 0.00 | 42 | 1013.3 |
| 20260505204532 | 78 | 58 | 3.0 | 9.0 | 0.00 | 0.00 | 0.00 | 45 | 1013.6 |
| 20260505203029 | 78 | 17 | 3.0 | 10.0 | 0.00 | 0.00 | 0.00 | 46 | 1013.7 |
| 20260505201609 | 77 | 24 | 3.0 | 8.0 | 0.00 | 0.00 | 0.00 | 47 | 1013.7 |
| 20260505200037 | 77 | 26 | 3.0 | 8.0 | 0.00 | 0.00 | 0.00 | 47 | 1013.9 |
| 20260505193030 | 76 | 81 | 2.0 | 7.0 | 0.00 | 0.00 | 0.00 | 50 | 1014.0 |
| 20260505191531 | 76 | 76 | 3.0 | 7.0 | 0.00 | 0.00 | 0.00 | 51 | 1014.0 |
| 20260505184534 | 73 | 74 | 3.0 | 7.0 | 0.00 | 0.00 | 0.00 | 54 | 1014.3 |
| 20260505183030 | 72 | 28 | 3.0 | 9.0 | 0.00 | 0.00 | 0.00 | 54 | 1014.4 |
| 20260505181531 | 71 | 27 | 3.0 | 8.0 | 0.00 | 0.00 | 0.00 | 57 | 1014.3 |
| 20260505180030 | 71 | 7 | 4.0 | 8.0 | 0.00 | 0.00 | 0.00 | 58 | 1014.3 |
| 20260505174535 | 70 | 53 | 3.0 | 7.0 | 0.00 | 0.00 | 0.00 | 60 | 1014.3 |
| 20260505173035 | 69 | 96 | 4.0 | 9.0 | 0.00 | 0.00 | 0.00 | 62 | 1014.3 |
| 20260505170043 | 65 | 79 | 4.0 | 8.0 | 0.00 | 0.00 | 0.00 | 69 | 1014.3 |
| 20260505164535 | 63 | 76 | 4.0 | 8.0 | 0.00 | 0.00 | 0.00 | 71 | 1014.3 |
| 20260505163030 | 63 | 82 | 3.0 | 7.0 | 0.00 | 0.00 | 0.00 | 71 | 1014.3 |
| 20260505161536 | 63 | 66 | 2.0 | 6.0 | 0.00 | 0.00 | 0.00 | 74 | 1014.3 |
| 20260505153028 | 56 | 35 | 4.0 | 6.0 | 0.00 | 0.00 | 0.00 | 90 | 1014.0 |
| 20260505124530 | 45 | 214 | 2.0 | 5.0 | 0.00 | 0.00 | 0.00 | 94 | 1012.6 |
| 20260505123141 | 45 | 179 | 2.0 | 5.0 | 0.00 | 0.00 | 0.00 | 93 | 1012.5 |
| 20260505121543 | 45 | 229 | 2.0 | 4.0 | 0.00 | 0.00 | 0.00 | 93 | 1012.4 |
| 20260505120033 | 45 | 229 | 2.0 | 5.0 | 0.00 | 0.00 | 0.00 | 93 | 1012.4 |
| 20260505114535 | 46 | 202 | 2.0 | 4.0 | 0.00 | 0.00 | 0.00 | 92 | 1012.3 |
| 20260505111607 | 46 | 202 | 0.0 | 2.0 | 0.00 | 0.00 | 0.00 | 92 | 1012.1 |
| 20260505101608 | 48 | 205 | 3.0 | 6.0 | 0.00 | 0.00 | 0.00 | 91 | 1011.8 |
| 20260505100107 | 49 | 202 | 3.0 | 5.0 | 0.00 | 0.00 | 0.00 | 91 | 1011.7 |
| 20260505094651 | 48 | 202 | 3.0 | 6.0 | 0.00 | 0.00 | 0.00 | 90 | 1011.6 |
| 20260505093032 | 48 | 230 | 3.0 | 5.0 | 0.00 | 0.00 | 0.00 | 90 | 1011.6 |
| 20260505090036 | 49 | 204 | 1.0 | 3.0 | 0.00 | 0.00 | 0.00 | 89 | 1011.4 |
| 20260505084606 | 49 | 211 | 2.0 | 4.0 | 0.00 | 0.00 | 0.00 | 88 | 1011.5 |
| 20260505081606 | 51 | 237 | 0.0 | 4.0 | 0.00 | 0.00 | 0.00 | 86 | 1011.4 |
| 20260505080036 | 51 | 229 | 1.0 | 4.0 | 0.00 | 0.00 | 0.00 | 86 | 1011.5 |
| 20260505074530 | 52 | 196 | 2.0 | 4.0 | 0.00 | 0.00 | 0.00 | 84 | 1011.4 |
| 20260505073031 | 53 | 111 | 1.0 | 4.0 | 0.00 | 0.00 | 0.00 | 82 | 1011.2 |
| 20260505071532 | 54 | 181 | 2.0 | 4.0 | 0.00 | 0.00 | 0.00 | 79 | 1011.1 |
| 20260505064532 | 57 | 286 | 1.0 | 4.0 | 0.00 | 0.00 | 0.00 | 72 | 1011.0 |
| 20260505063030 | 59 | 243 | 0.0 | 3.0 | 0.00 | 0.00 | 0.00 | 69 | 1011.0 |
| 20260505061533 | 59 | 268 | 1.0 | 5.0 | 0.00 | 0.00 | 0.00 | 69 | 1011.0 |
| 20260505060036 | 58 | 288 | 2.0 | 7.0 | 0.00 | 0.00 | 0.00 | 69 | 1010.9 |
| 20260505054529 | 58 | 292 | 1.0 | 6.0 | 0.00 | 0.00 | 0.00 | 69 | 1010.9 |
| 20260505053032 | 58 | 216 | 0.0 | 3.0 | 0.00 | 0.00 | 0.00 | 67 | 1010.8 |
| 20260505051537 | 60 | 111 | 0.0 | 3.0 | 0.00 | 0.00 | 0.00 | 62 | 1010.7 |
| 20260505041530 | 65 | 322 | 1.0 | 9.0 | 0.00 | 0.00 | 0.00 | 50 | 1010.1 |
| 20260505040049 | 65 | 268 | 2.0 | 10.0 | 0.00 | 0.00 | 0.00 | 49 | 1009.9 |
| 20260505031528 | 68 | 283 | 6.0 | 16.0 | 0.00 | 0.00 | 0.00 | 45 | 1009.1 |
| 20260505030032 | 69 | 279 | 6.0 | 17.0 | 0.00 | 0.00 | 0.00 | 43 | 1008.9 |
| 20260505024605 | 71 | 287 | 5.0 | 11.0 | 0.00 | 0.00 | 0.00 | 40 | 1008.7 |
| 20260505021530 | 73 | 286 | 8.0 | 20.0 | 0.00 | 0.00 | 0.00 | 36 | 1008.7 |
| 20260505014607 | 75 | 285 | 8.0 | 17.0 | 0.00 | 0.00 | 0.00 | 35 | 1008.6 |
| 20260505011535 | 77 | 289 | 8.0 | 16.0 | 0.00 | 0.00 | 0.00 | 34 | 1008.6 |
| 20260505010035 | 78 | 288 | 8.0 | 19.0 | 0.00 | 0.00 | 0.00 | 32 | 1008.6 |
| 20260505003111 | 80 | 291 | 8.0 | 18.0 | 0.00 | 0.00 | 0.00 | 31 | 1008.5 |
| 20260505001531 | 81 | 294 | 7.0 | 15.0 | 0.00 | 0.00 | 0.00 | 30 | 1008.6 |
| 20260505000145 | 81 | 290 | 7.0 | 16.0 | 0.00 | 0.00 | 0.00 | 32 | 1008.6 |
| 20260504234533 | 81 | 318 | 6.0 | 13.0 | 0.00 | 0.00 | 0.00 | 36 | 1008.5 |
| 20260504233033 | 82 | 17 | 6.0 | 11.0 | 0.00 | 0.00 | 0.00 | 35 | 1008.5 |
| 20260504231535 | 82 | 24 | 6.0 | 12.0 | 0.00 | 0.00 | 0.00 | 33 | 1008.7 |
| 20260504224531 | 83 | 30 | 7.0 | 17.0 | 0.00 | 0.00 | 0.00 | 32 | 1008.9 |
| 20260504223033 | 84 | 356 | 6.0 | 14.0 | 0.00 | 0.00 | 0.00 | 31 | 1009.1 |
| 20260504221537 | 83 | 12 | 5.0 | 13.0 | 0.00 | 0.00 | 0.00 | 32 | 1009.3 |
| 20260504220032 | 83 | 354 | 6.0 | 11.0 | 0.00 | 0.00 | 0.00 | 32 | 1009.5 |
| 20260504214531 | 83 | 29 | 6.0 | 13.0 | 0.00 | 0.00 | 0.00 | 31 | 1009.6 |
| 20260504213030 | 83 | 4 | 5.0 | 12.0 | 0.00 | 0.00 | 0.00 | 30 | 1009.8 |